Regional Weather Roundup
Issued by NWS

Home | Current Version | Previous Version | Graphics & Text | Print | Product List | Glossary On
Versions: 1 2 3 4 5 6 7 8 9 10 11 12 13 14 15 16 17 18 19 20 21 22 23 24 25 26 27 28 29 30 31 32 33 34 35 36 37 38 39 40 41 42 43 44 45 46 47 48 49 50
000
ASUS43 KLSX 210507
RWRMO

WEATHER SUMMARY FOR MISSOURI
NATIONAL WEATHER SERVICE SPRINGFIELD MO
1100 PM CST MON NOV 20 2017

NOTE: "FAIR" INDICATES FEW OR NO CLOUDS BELOW 12,000 FEET WITH NO
       SIGNIFICANT WEATHER AND/OR OBSTRUCTIONS TO VISIBILITY.
       CURRENT SKY AND/OR WEATHER CONDITIONS ARE NOT AVAILABLE FOR
       CHILLICOTHE AND FARMINGTON.

MOZ001>031-035>038-043-044-053-054-210600-
...NORTHERN AND WESTERN MISSOURI...

CITY           SKY/WX    TMP DP  RH WIND       PRES   REMARKS
KANSAS CTY INT CLEAR     51  30  44 SW17      29.74R
KANSAS C DTWN  CLEAR     54  30  40 SW13G22   29.75R
LEE`S SUMMIT   CLEAR     52  31  44 SW18      29.76S
ST JOSEPH      CLEAR     49  30  48 S9        29.73R
CHILLICOTHE      N/A     50  32  50 S10       29.75S
KIRKSVILLE     PTCLDY    52  31  44 SW13G23   29.75R

$$
MOZ066>068-077>081-088>096-101>105-210600-
...SOUTHWEST MISSOURI...

CITY           SKY/WX    TMP DP  RH WIND       PRES   REMARKS
SPRINGFIELD    PTCLDY    47  32  56 S12       29.89S
JOPLIN         CLOUDY    52  32  46 S14       29.89S
BRANSON        MOCLDY    48  30  49 CALM      29.93S

$$
MOZ032>034-039>042-045>050-055>058-069>072-210600-
...CENTRAL MISSOURI...

CITY           SKY/WX    TMP DP  RH WIND       PRES   REMARKS
COLUMBIA       CLOUDY    48  29  47 S9        29.82F
JEFFERSON CITY MOCLDY    52  29  41 S7        29.84F
ROLLA          CLOUDY    48  29  47 S16G25    29.87F
SEDALIA        PTCLDY    54  32  43 SW17G31   29.80F
WHITEMAN AFB   CLEAR     51  30  45 SW24      29.74S
WARRENSBURG    CLEAR     50  32  50 S13G21    29.77F
OSAGE BEACH    MOCLDY    52  31  44 SW14      29.86F

$$
MOZ051-052-059>065-210600-
...EAST CENTRAL MISSOURI...

CITY           SKY/WX    TMP DP  RH WIND       PRES   REMARKS
ST LOUIS INTL  CLOUDY    48  29  47 S12       29.88S
SPIRIT OF STL  CLOUDY    50  28  42 VRB5      29.87R
ST CHARLES     MOCLDY    46  30  53 S10       29.87S

$$
MOZ072>076-082>087-097>100-106>115-210600-
...SOUTH CENTRAL AND SOUTHEAST MISSOURI...

CITY           SKY/WX    TMP DP  RH WIND       PRES   REMARKS
CAPE GIRARDEAU CLEAR     44  27  51 S14G24    29.98F
FARMINGTON     CLOUDY    44  28  53 S16       29.92F
POPLAR BLUFF   CLEAR     41  29  62 S8        29.98F
WEST PLAINS    CLOUDY    45  27  49 S7        29.95F

$$



USA.gov is the U.S. government's official web portal to all federal, state and local government web resources and services.